Zurück zum Katalog

COSMOS 970 DEB

AktivLEO
NORAD 10890·DEBRIS·🇷🇺 Russia

Gestartet Dec 21, 1977 von Baikonur Cosmodrome

Loading…

Nächste Überflüge (nächste 24 Stunden)

TLE

AktuellSource: Space-Track

Epoche: Sep 14, 2026, 08:36 UTC

1 10890U 77121AM  26257.35885310  .00000148  00000-0  23608-3 0  9996
2 10890  65.7788  20.2373 0141197 303.4483  87.4932 13.71438136431745

Verfolge COSMOS 970 DEB in Echtzeit mit AllMySat

Download on the App Store